{"data":{"norad_id":54700,"epoch":"2026-05-25T05:26:50.426592Z","epoch_age_seconds":55169,"freshness":"FRESH","line1":"1 54700U 22169B   26145.22697253  .00000030  00000+0  64850-4 0  9999","line2":"2 54700  59.9977 316.3931 0013435 182.5417 177.5552 14.29532806180072","mean_motion":14.29532806,"eccentricity":0.0013435,"inclination_deg":59.9977,"raan_deg":316.3931,"arg_perigee_deg":182.5417,"mean_anomaly_deg":177.5552,"bstar":6.485e-5,"rev_number":18007,"period_min":100.73221082833,"perigee_km":783.65807597251,"apogee_km":802.9277080924,"semimajor_km":7171.4298920325,"source":"CELESTRAK","updated_at":"2026-05-25T13:37:58.711427Z"}}